datetime,delta storage
1990-09-19,-176.0
1990-09-20,-176.0
1990-09-21,-176.0
1990-09-22,-176.0
1990-09-23,-175.0
1990-09-24,-175.0
1990-09-25,-175.0
1990-09-26,-175.0
1990-09-27,-174.0
1990-09-28,-262.0
1990-09-29,-261.0
1990-09-30,-173.0
1990-10-01,-174.0
1990-10-02,0.0
1990-10-03,0.0
1990-10-04,0.0
1990-10-05,0.0
1990-10-06,0.0
1990-10-07,0.0
1990-10-08,174.0
1990-10-09,0.0
1990-10-10,0.0
1990-10-11,0.0
1990-10-12,0.0
1990-10-13,0.0
1990-10-14,87.0
1990-10-15,86.0
1990-10-16,0.0
1990-10-17,0.0
1990-10-18,0.0
1990-10-19,174.0
1990-10-20,174.0
1990-10-21,175.0
1990-10-22,0.0
1990-10-23,-88.0
1990-10-24,-87.0
1990-10-25,0.0
1990-10-26,52.0
1990-10-27,35.0
1990-10-28,-52.0
1990-10-29,-87.0
1990-10-30,-122.0
1990-10-31,0.0
1990-11-01,0.0
1990-11-02,0.0
1990-11-03,0.0
1990-11-04,0.0
1990-11-05,0.0
1990-11-06,0.0
1990-11-07,0.0
1990-11-08,0.0
1990-11-09,0.0
1990-11-10,0.0
1990-11-11,0.0
1990-11-12,0.0
1990-11-13,-87.0
1990-11-14,-87.0
1990-11-15,0.0
1990-11-16,-86.0
1990-11-17,-87.0
1990-11-18,0.0
1990-11-19,0.0
1990-11-20,0.0
1990-11-21,0.0
1990-11-22,0.0
1990-11-23,0.0
1990-11-24,-87.0
1990-11-25,-87.0
1990-11-26,-86.0
1990-11-27,-87.0
1990-11-28,-86.0
1990-11-29,-87.0
1990-11-30,0.0
1990-12-01,0.0
1990-12-02,-172.0
1990-12-03,0.0
1990-12-04,0.0
1990-12-05,0.0
1990-12-06,0.0
1990-12-07,0.0
1990-12-08,0.0
1990-12-09,-87.0
1990-12-10,-86.0
1990-12-11,-86.0
1990-12-12,-86.0
1990-12-13,0.0
1990-12-14,-86.0
1990-12-15,-86.0
1990-12-16,-86.0
1990-12-17,-86.0
1990-12-18,-85.0
1990-12-19,-86.0
1990-12-20,-86.0
1990-12-21,-85.0
1990-12-22,-86.0
1990-12-23,-85.0
1990-12-24,-86.0
1990-12-25,-119.0
1990-12-26,-137.0
1990-12-27,0.0
1990-12-28,-136.0
1990-12-29,-136.0
1990-12-30,-136.0
1990-12-31,-136.0
1991-01-01,-136.0
1991-01-02,-85.0
1991-01-03,-84.0
1991-01-04,-85.0
1991-01-05,-85.0
1991-01-06,0.0
1991-01-07,0.0
1991-01-08,-84.0
1991-01-09,-85.0
1991-01-10,0.0
1991-01-11,0.0
1991-01-12,0.0
1991-01-13,0.0
1991-01-14,-168.0
1991-01-15,0.0
1991-01-16,0.0
1991-01-17,-169.0
1991-01-18,-168.0
1991-01-19,-168.0
1991-01-20,0.0
1991-01-21,-168.0
1991-01-22,0.0
1991-01-23,-84.0
1991-01-24,-84.0
1991-01-25,-83.0
1991-01-26,-84.0
1991-01-27,-84.0
1991-01-28,-83.0
1991-01-29,0.0
1991-01-30,0.0
1991-01-31,-167.0
1991-02-01,-83.0
1991-02-02,-84.0
1991-02-03,-83.0
1991-02-04,-83.0
1991-02-05,-83.0
1991-02-06,-83.0
1991-02-07,-166.0
1991-02-08,-166.0
1991-02-09,-166.0
1991-02-10,-165.0
1991-02-11,-165.0
1991-02-12,-82.0
1991-02-13,-83.0
1991-02-14,-82.0
1991-02-15,-82.0
1991-02-16,-83.0
1991-02-17,-82.0
1991-02-18,0.0
1991-02-19,0.0
1991-02-20,0.0
1991-02-21,0.0
1991-02-22,-164.0
1991-02-23,-164.0
1991-02-24,-163.0
1991-02-25,0.0
1991-02-26,0.0
1991-02-27,0.0
1991-02-28,0.0
1991-03-01,0.0
1991-03-02,-164.0
1991-03-03,0.0
1991-03-04,0.0
1991-03-05,0.0
1991-03-06,-163.0
1991-03-07,-163.0
1991-03-08,-163.0
1991-03-09,0.0
1991-03-10,-162.0
1991-03-11,0.0
1991-03-12,-163.0
1991-03-13,-162.0
1991-03-14,-162.0
1991-03-15,-161.0
1991-03-16,0.0
1991-03-17,-161.0
1991-03-18,0.0
1991-03-19,0.0
1991-03-20,0.0
1991-03-21,0.0
1991-03-22,-162.0
1991-03-23,-161.0
1991-03-24,-160.0
1991-03-25,0.0
1991-03-26,-161.0
1991-03-27,0.0
1991-03-28,0.0
1991-03-29,0.0
1991-03-30,0.0
1991-03-31,0.0
1991-04-01,-160.0
1991-04-02,-160.0
1991-04-03,0.0
1991-04-04,-160.0
1991-04-05,0.0
1991-04-06,-159.0
1991-04-07,0.0
1991-04-08,0.0
1991-04-09,0.0
1991-04-10,0.0
1991-04-11,0.0
1991-04-12,0.0
1991-04-13,159.0
1991-04-14,0.0
1991-04-15,-159.0
1991-04-16,-159.0
1991-04-17,0.0
1991-04-18,0.0
1991-04-19,0.0
1991-04-20,0.0
1991-04-21,0.0
1991-04-22,0.0
1991-04-23,-159.0
1991-04-24,0.0
1991-04-25,0.0
1991-04-26,0.0
1991-04-27,-159.0
1991-04-28,0.0
1991-04-29,-159.0
1991-04-30,-158.0
1991-05-01,-316.0
1991-05-02,-473.0
1991-05-03,-313.0
1991-05-04,-313.0
1991-05-05,-312.0
1991-05-06,-311.0
1991-05-07,-310.0
1991-05-08,-309.0
1991-05-09,0.0
1991-05-10,0.0
1991-05-11,774.0
1991-05-12,312.0
1991-05-13,0.0
1991-05-14,156.0
1991-05-15,313.0
1991-05-16,156.0
1991-05-17,157.0
1991-05-18,157.0
1991-05-19,158.0
1991-05-20,791.0
1991-05-21,477.0
1991-05-22,960.0
1991-05-23,645.0
1991-05-24,975.0
1991-05-25,163.0
1991-05-26,655.0
1991-05-27,990.0
1991-05-28,831.0
1991-05-29,837.0
1991-05-30,505.0
1991-05-31,1186.0
1991-06-01,1438.0
1991-06-02,1454.0
1991-06-03,699.0
1991-06-04,350.0
1991-06-05,704.0
1991-06-06,885.0
1991-06-07,891.0
1991-06-08,897.0
1991-06-09,1265.0
1991-06-10,728.0
1991-06-11,1099.0
1991-06-12,1662.0
1991-06-13,1118.0
1991-06-14,1125.0
1991-06-15,1703.0
1991-06-16,1144.0
1991-06-17,1345.0
1991-06-18,967.0
1991-06-19,973.0
1991-06-20,781.0
1991-06-21,982.0
1991-06-22,789.0
1991-06-23,594.0
1991-06-24,597.0
1991-06-25,598.0
1991-06-26,399.0
1991-06-27,201.0
1991-06-28,401.0
1991-06-29,401.0
1991-06-30,403.0
1991-07-01,202.0
1991-07-02,-202.0
1991-07-03,-362.0
1991-07-04,-201.0
1991-07-05,-402.0
1991-07-06,-401.0
1991-07-07,-399.0
1991-07-08,-200.0
1991-07-09,-199.0
1991-07-10,-200.0
1991-07-11,0.0
1991-07-12,-199.0
1991-07-13,-198.0
1991-07-14,0.0
1991-07-15,-199.0
1991-07-16,-198.0
1991-07-17,-198.0
1991-07-18,0.0
1991-07-19,-198.0
1991-07-20,-198.0
1991-07-21,-197.0
1991-07-22,-198.0
1991-07-23,0.0
1991-07-24,-197.0
1991-07-25,0.0
1991-07-26,-196.0
1991-07-27,0.0
1991-07-28,-197.0
1991-07-29,-196.0
1991-07-30,-197.0
1991-07-31,-196.0
1991-08-01,-195.0
1991-08-02,-391.0
1991-08-03,-390.0
1991-08-04,-195.0
1991-08-05,-195.0
1991-08-06,-194.0
1991-08-07,-194.0
1991-08-08,-194.0
1991-08-09,-194.0
1991-08-10,-386.0
1991-08-11,-386.0
1991-08-12,-385.0
1991-08-13,-384.0
1991-08-14,-192.0
1991-08-15,-383.0
1991-08-16,-382.0
1991-08-17,-190.0
1991-08-18,-191.0
1991-08-19,-437.0
1991-08-20,-474.0
1991-08-21,-416.0
1991-08-22,-189.0
1991-08-23,-377.0
1991-08-24,-188.0
1991-08-25,-188.0
1991-08-26,-375.0
1991-08-27,-375.0
1991-08-28,-186.0
1991-08-29,-374.0
1991-08-30,-372.0
1991-08-31,-186.0
1991-09-01,-371.0
1991-09-02,-185.0
1991-09-03,-185.0
1991-09-04,-277.0
1991-09-05,-276.0
1991-09-06,-185.0
1991-09-07,-183.0
1991-09-08,0.0
1991-09-09,-184.0
1991-09-10,0.0
1991-09-11,0.0
1991-09-12,-184.0
1991-09-13,-183.0
1991-09-14,0.0
1991-09-15,0.0
1991-09-16,-183.0
1991-09-17,0.0
1991-09-18,-183.0
1991-09-19,-91.0
1991-09-20,-91.0
1991-09-21,-183.0
1991-09-22,-182.0
1991-09-23,-273.0
1991-09-24,-272.0
1991-09-25,0.0
1991-09-26,-272.0
1991-09-27,-271.0
1991-09-28,-181.0
1991-09-29,-90.0
1991-09-30,-90.0
1991-10-01,-180.0
1991-10-02,-270.0
1991-10-03,-269.0
1991-10-04,-179.0
1991-10-05,0.0
1991-10-06,-179.0
1991-10-07,-179.0
1991-10-08,-178.0
1991-10-09,-179.0
1991-10-10,-178.0
1991-10-11,0.0
1991-10-12,-177.0
1991-10-13,-178.0
1991-10-14,-177.0
1991-10-15,-177.0
1991-10-16,-177.0
1991-10-17,-177.0
1991-10-18,-176.0
1991-10-19,-176.0
1991-10-20,-176.0
1991-10-21,-176.0
1991-10-22,-175.0
1991-10-23,-175.0
1991-10-24,-175.0
1991-10-25,-175.0
1991-10-26,0.0
1991-10-27,0.0
1991-10-28,-174.0
1991-10-29,-175.0
1991-10-30,-174.0
1991-10-31,-174.0
1991-11-01,-173.0
1991-11-02,-174.0
1991-11-03,0.0
1991-11-04,-173.0
1991-11-05,0.0
1991-11-06,-173.0
1991-11-07,0.0
1991-11-08,0.0
1991-11-09,0.0
1991-11-10,0.0
1991-11-11,0.0
1991-11-12,0.0
1991-11-13,0.0
1991-11-14,0.0
1991-11-15,0.0
1991-11-16,0.0
1991-11-17,-172.0
1991-11-18,-173.0
1991-11-19,-172.0
1991-11-20,0.0
1991-11-21,-172.0
1991-11-22,0.0
1991-11-23,0.0
1991-11-24,0.0
1991-11-25,0.0
1991-11-26,-172.0
1991-11-27,0.0
1991-11-28,-171.0
1991-11-29,0.0
1991-11-30,0.0
1991-12-01,0.0
1991-12-02,0.0
1991-12-03,0.0
1991-12-04,-171.0
1991-12-05,-171.0
1991-12-06,-171.0
1991-12-07,-171.0
1991-12-08,0.0
1991-12-09,0.0
1991-12-10,0.0
1991-12-11,0.0
1991-12-12,0.0
1991-12-13,0.0
1991-12-14,0.0
1991-12-15,0.0
1991-12-16,-170.0
1991-12-17,-170.0
1991-12-18,-170.0
1991-12-19,-170.0
1991-12-20,-169.0
1991-12-21,-170.0
1991-12-22,-169.0
1991-12-23,-168.0
1991-12-24,-169.0
1991-12-25,-168.0
1991-12-26,0.0
1991-12-27,0.0
1991-12-28,0.0
1991-12-29,-168.0
1991-12-30,-168.0
1991-12-31,-168.0
1992-01-01,-167.0
1992-01-02,-167.0
1992-01-03,-167.0
1992-01-04,-167.0
1992-01-05,-166.0
1992-01-06,-166.0
1992-01-07,-166.0
1992-01-08,-166.0
1992-01-09,-166.0
1992-01-10,-165.0
1992-01-11,-165.0
1992-01-12,-165.0
1992-01-13,-164.0
1992-01-14,-165.0
1992-01-15,-164.0
1992-01-16,-164.0
1992-01-17,-163.0
1992-01-18,-164.0
1992-01-19,-163.0
1992-01-20,-163.0
1992-01-21,-163.0
1992-01-22,-162.0
1992-01-23,-163.0
1992-01-24,-162.0
1992-01-25,-162.0
1992-01-26,-161.0
1992-01-27,-161.0
1992-01-28,-162.0
1992-01-29,-161.0
1992-01-30,-160.0
1992-01-31,-161.0
1992-02-01,-160.0
1992-02-02,-160.0
1992-02-03,-160.0
1992-02-04,-159.0
1992-02-05,-159.0
1992-02-06,-159.0
1992-02-07,-159.0
1992-02-08,0.0
1992-02-09,0.0
1992-02-10,0.0
1992-02-11,0.0
1992-02-12,0.0
1992-02-13,-159.0
1992-02-14,-158.0
1992-02-15,-158.0
1992-02-16,-158.0
1992-02-17,-158.0
1992-02-18,0.0
1992-02-19,0.0
1992-02-20,0.0
1992-02-21,-158.0
1992-02-22,-157.0
1992-02-23,-157.0
1992-02-24,-156.0
1992-02-25,0.0
1992-02-26,0.0
1992-02-27,-157.0
1992-02-28,-156.0
1992-02-29,-156.0
1992-03-01,-156.0
1992-03-02,-156.0
1992-03-03,0.0
1992-03-04,0.0
1992-03-05,0.0
1992-03-06,0.0
1992-03-07,0.0
1992-03-08,0.0
1992-03-09,-155.0
1992-03-10,0.0
1992-03-11,-155.0
1992-03-12,-155.0
1992-03-13,-155.0
1992-03-14,-154.0
1992-03-15,-155.0
1992-03-16,-154.0
1992-03-17,-153.0
1992-03-18,0.0
1992-03-19,0.0
1992-03-20,-154.0
1992-03-21,-153.0
1992-03-22,-153.0
1992-03-23,-153.0
1992-03-24,0.0
1992-03-25,0.0
1992-03-26,0.0
1992-03-27,-153.0
1992-03-28,0.0
1992-03-29,0.0
1992-03-30,-152.0
1992-03-31,-152.0
1992-04-01,-152.0
1992-04-02,0.0
1992-04-03,0.0
1992-04-04,0.0
1992-04-05,-152.0
1992-04-06,304.0
1992-04-07,-152.0
1992-04-08,0.0
1992-04-09,-152.0
1992-04-10,0.0
1992-04-11,0.0
1992-04-12,0.0
1992-04-13,0.0
1992-04-14,0.0
1992-04-15,0.0
1992-04-16,0.0
1992-04-17,0.0
1992-04-18,0.0
1992-04-19,0.0
1992-04-20,-151.0
1992-04-21,-152.0
1992-04-22,-151.0
1992-04-23,-150.0
1992-04-24,-151.0
1992-04-25,-150.0
1992-04-26,-150.0
1992-04-27,0.0
1992-04-28,0.0
1992-04-29,150.0
1992-04-30,0.0
1992-05-01,301.0
1992-05-02,301.0
1992-05-03,152.0
1992-05-04,151.0
1992-05-05,304.0
1992-05-06,610.0
1992-05-07,306.0
1992-05-08,461.0
1992-05-09,464.0
1992-05-10,310.0
1992-05-11,311.0
1992-05-12,156.0
1992-05-13,312.0
1992-05-14,157.0
1992-05-15,313.0
1992-05-16,315.0
1992-05-17,316.0
1992-05-18,475.0
1992-05-19,636.0
1992-05-20,480.0
1992-05-21,644.0
1992-05-22,809.0
1992-05-23,815.0
1992-05-24,820.0
1992-05-25,495.0
1992-05-26,664.0
1992-05-27,834.0
1992-05-28,841.0
1992-05-29,507.0
1992-05-30,509.0
1992-05-31,170.0
1992-06-01,341.0
1992-06-02,513.0
1992-06-03,343.0
1992-06-04,517.0
1992-06-05,518.0
1992-06-06,695.0
1992-06-07,349.0
1992-06-08,350.0
1992-06-09,526.0
1992-06-10,0.0
1992-06-11,352.0
1992-06-12,707.0
1992-06-13,355.0
1992-06-14,355.0
1992-06-15,536.0
1992-06-16,358.0
1992-06-17,179.0
1992-06-18,0.0
1992-06-19,0.0
1992-06-20,180.0
1992-06-21,180.0
1992-06-22,180.0
1992-06-23,0.0
1992-06-24,0.0
1992-06-25,0.0
1992-06-26,361.0
1992-06-27,0.0
1992-06-28,180.0
1992-06-29,181.0
1992-06-30,727.0
1992-07-01,913.0
1992-07-02,919.0
1992-07-03,923.0
1992-07-04,929.0
1992-07-05,747.0
1992-07-06,0.0
1992-07-07,0.0
1992-07-08,-187.0
1992-07-09,0.0
1992-07-10,-186.0
1992-07-11,0.0
1992-07-12,0.0
1992-07-13,0.0
1992-07-14,-374.0
1992-07-15,0.0
1992-07-16,-297.0
1992-07-17,-298.0
1992-07-18,-315.0
1992-07-19,-296.0
1992-07-20,-296.0
1992-07-21,-295.0
1992-07-22,-295.0
1992-07-23,-312.0
1992-07-24,-294.0
1992-07-25,-292.0
1992-07-26,-293.0
1992-07-27,-310.0
1992-07-28,-291.0
1992-07-29,-291.0
1992-07-30,-290.0
1992-07-31,-289.0
1992-08-01,-307.0
1992-08-02,-288.0
1992-08-03,-288.0
1992-08-04,-287.0
1992-08-05,-286.0
1992-08-06,-304.0
1992-08-07,-285.0
1992-08-08,-285.0
1992-08-09,-284.0
1992-08-10,-283.0
1992-08-11,-300.0
1992-08-12,-282.0
1992-08-13,-282.0
1992-08-14,-281.0
1992-08-15,-298.0
1992-08-16,-280.0
1992-08-17,-279.0
1992-08-18,-278.0
1992-08-19,-278.0
1992-08-20,-278.0
1992-08-21,-294.0
1992-08-22,-276.0
1992-08-23,-275.0
1992-08-24,-275.0
1992-08-25,-275.0
1992-08-26,-273.0
1992-08-27,-291.0
1992-08-28,-272.0
1992-08-29,-272.0
1992-08-30,-272.0
1992-08-31,-270.0
1992-09-01,-271.0
1992-09-02,-286.0
1992-09-03,-269.0
1992-09-04,-269.0
1992-09-05,-267.0
1992-09-06,-268.0
1992-09-07,-266.0
1992-09-08,-283.0
1992-09-09,-265.0
1992-09-10,-265.0
1992-09-11,-264.0
1992-09-12,-264.0
1992-09-13,-263.0
1992-09-14,-279.0
1992-09-15,-262.0
1992-09-16,-261.0
1992-09-17,-261.0
1992-09-18,-260.0
1992-09-19,-259.0
1992-09-20,-259.0
1992-09-21,-275.0
1992-09-22,-257.0
1992-09-23,-257.0
1992-09-24,-257.0
1992-09-25,-256.0
1992-09-26,-255.0
1992-09-27,-271.0
1992-09-28,-254.0
1992-09-29,-253.0
1992-09-30,-285.0
1992-10-01,-284.0
1992-10-02,-298.0
1992-10-03,-314.0
1992-10-04,-297.0
1992-10-05,-249.0
1992-10-06,-311.0
1992-10-07,-295.0
1992-10-08,-324.0
1992-10-09,-309.0
1992-10-10,-276.0
1992-10-11,-307.0
1992-10-12,-259.0
1992-10-13,-305.0
1992-10-14,-304.0
1992-10-15,-227.0
1992-10-16,-303.0
1992-10-17,-301.0
1992-10-18,-255.0
1992-10-19,-270.0
1992-10-20,-299.0
1992-10-21,-372.0
1992-10-22,-297.0
1992-10-23,-266.0
1992-10-24,-251.0
1992-10-25,-132.0
1992-10-26,-132.0
1992-10-27,-147.0
1992-10-28,-147.0
1992-10-29,-161.0
1992-10-30,-160.0
1992-10-31,-146.0
1992-11-01,-160.0
1992-11-02,-146.0
1992-11-03,-130.0
1992-11-04,-145.0
1992-11-05,-145.0
1992-11-06,-144.0
1992-11-07,-144.0
1992-11-08,-144.0
1992-11-09,-144.0
1992-11-10,-144.0
1992-11-11,-143.0
1992-11-12,-143.0
1992-11-13,-143.0
1992-11-14,-142.0
1992-11-15,-143.0
1992-11-16,-142.0
1992-11-17,-142.0
1992-11-18,-141.0
1992-11-19,-142.0
1992-11-20,-141.0
1992-11-21,-141.0
1992-11-22,-141.0
1992-11-23,-140.0
1992-11-24,-140.0
1992-11-25,-140.0
1992-11-26,-140.0
1992-11-27,-140.0
1992-11-28,-139.0
1992-11-29,-139.0
1992-11-30,-139.0
1992-12-01,-139.0
1992-12-02,-55.0
1992-12-03,-56.0
1992-12-04,-55.0
1992-12-05,-55.0
1992-12-06,-56.0
1992-12-07,-55.0
1992-12-08,-55.0
1992-12-09,-55.0
1992-12-10,-55.0
1992-12-11,-55.0
1992-12-12,-55.0
1992-12-13,-55.0
1992-12-14,-55.0
1992-12-15,-55.0
1992-12-16,-55.0
1992-12-17,-55.0
1992-12-18,-55.0
1992-12-19,-54.0
1992-12-20,-55.0
1992-12-21,-55.0
1992-12-22,-55.0
1992-12-23,-54.0
1992-12-24,-55.0
1992-12-25,-54.0
1992-12-26,-55.0
1992-12-27,-54.0
1992-12-28,-55.0
1992-12-29,-41.0
1992-12-30,-54.0
1992-12-31,-54.0
1993-01-01,-55.0
1993-01-02,-54.0
1993-01-03,-54.0
1993-01-04,-54.0
1993-01-05,-54.0
1993-01-06,-55.0
1993-01-07,-54.0
1993-01-08,-54.0
1993-01-09,-54.0
1993-01-10,-54.0
1993-01-11,-53.0
1993-01-12,-54.0
1993-01-13,-54.0
1993-01-14,-54.0
1993-01-15,-54.0
1993-01-16,-53.0
1993-01-17,-54.0
1993-01-18,-54.0
1993-01-19,-53.0
1993-01-20,-54.0
1993-01-21,-53.0
1993-01-22,-54.0
1993-01-23,-53.0
1993-01-24,-54.0
1993-01-25,-53.0
1993-01-26,-53.0
1993-01-27,-54.0
1993-01-28,-53.0
1993-01-29,-53.0
1993-01-30,-53.0
1993-01-31,-53.0
1993-02-01,-53.0
1993-02-02,-53.0
1993-02-03,-53.0
1993-02-04,-53.0
1993-02-05,-53.0
1993-02-06,-53.0
1993-02-07,-53.0
1993-02-08,-53.0
1993-02-09,-53.0
1993-02-10,-52.0
1993-02-11,-53.0
1993-02-12,-53.0
1993-02-13,-52.0
1993-02-14,-53.0
1993-02-15,-52.0
1993-02-16,-53.0
1993-02-17,-52.0
1993-02-18,-53.0
1993-02-19,-52.0
1993-02-20,-52.0
1993-02-21,-53.0
1993-02-22,-52.0
1993-02-23,-52.0
1993-02-24,-52.0
1993-02-25,-52.0
1993-02-26,-52.0
1993-02-27,-52.0
1993-02-28,-52.0
1993-03-01,-52.0
1993-03-02,-52.0
1993-03-03,-52.0
1993-03-04,-52.0
1993-03-05,-52.0
1993-03-06,-52.0
1993-03-07,-51.0
1993-03-08,-52.0
1993-03-09,-52.0
1993-03-10,-51.0
1993-03-11,-52.0
1993-03-12,-51.0
1993-03-13,-52.0
1993-03-14,-51.0
1993-03-15,-52.0
1993-03-16,-51.0
1993-03-17,-51.0
1993-03-18,-52.0
1993-03-19,-51.0
1993-03-20,-51.0
1993-03-21,-51.0
1993-03-22,-51.0
1993-03-23,-51.0
1993-03-24,-51.0
1993-03-25,-51.0
1993-03-26,-51.0
1993-03-27,-51.0
1993-03-28,-51.0
1993-03-29,-51.0
1993-03-30,-25.0
1993-03-31,25.0
1993-04-01,25.0
1993-04-02,0.0
1993-04-03,13.0
1993-04-04,13.0
1993-04-05,-13.0
1993-04-06,-13.0
1993-04-07,0.0
1993-04-08,-12.0
1993-04-09,12.0
1993-04-10,13.0
1993-04-11,-13.0
1993-04-12,-12.0
1993-04-13,12.0
1993-04-14,13.0
1993-04-15,13.0
1993-04-16,13.0
1993-04-17,12.0
1993-04-18,13.0
1993-04-19,0.0
1993-04-20,13.0
1993-04-21,0.0
1993-04-22,13.0
1993-04-23,0.0
1993-04-24,12.0
1993-04-25,0.0
1993-04-26,13.0
1993-04-27,0.0
1993-04-28,13.0
1993-04-29,0.0
1993-04-30,12.0
1993-05-01,0.0
1993-05-02,13.0
1993-05-03,0.0
1993-05-04,13.0
1993-05-05,0.0
1993-05-06,13.0
1993-05-07,25.0
1993-05-08,26.0
1993-05-09,25.0
1993-05-10,26.0
1993-05-11,25.0
1993-05-12,13.0
1993-05-13,38.0
1993-05-14,39.0
1993-05-15,38.0
1993-05-16,38.0
1993-05-17,52.0
1993-05-18,51.0
1993-05-19,51.0
1993-05-20,64.0
1993-05-21,129.0
1993-05-22,258.0
1993-05-23,324.0
1993-05-24,521.0
1993-05-25,922.0
1993-05-26,733.0
1993-05-27,2174.0
1993-05-28,1389.0
1993-05-29,1269.0
1993-05-30,1001.0
1993-05-31,1449.0
1993-06-01,1620.0
1993-06-02,1497.0
1993-06-03,758.0
1993-06-04,763.0
1993-06-05,769.0
1993-06-06,464.0
1993-06-07,934.0
1993-06-08,470.0
1993-06-09,0.0
1993-06-10,1106.0
1993-06-11,318.0
1993-06-12,478.0
1993-06-13,320.0
1993-06-14,644.0
1993-06-15,1624.0
1993-06-16,1647.0
1993-06-17,1670.0
1993-06-18,1693.0
1993-06-19,1716.0
1993-06-20,1216.0
1993-06-21,699.0
1993-06-22,1587.0
1993-06-23,1248.0
1993-06-24,1620.0
1993-06-25,363.0
1993-06-26,1277.0
1993-06-27,919.0
1993-06-28,923.0
1993-06-29,929.0
1993-06-30,935.0
1993-07-01,563.0
1993-07-02,376.0
1993-07-03,1135.0
1993-07-04,570.0
1993-07-05,381.0
1993-07-06,191.0
1993-07-07,0.0
1993-07-08,0.0
1993-07-09,0.0
1993-07-10,766.0
1993-07-11,384.0
1993-07-12,192.0
1993-07-13,386.0
1993-07-14,193.0
1993-07-15,0.0
1993-07-16,0.0
1993-07-17,0.0
1993-07-18,0.0
1993-07-19,0.0
1993-07-20,-193.0
1993-07-21,-193.0
1993-07-22,-193.0
1993-07-23,0.0
1993-07-24,0.0
1993-07-25,-192.0
1993-07-26,-192.0
1993-07-27,-384.0
1993-07-28,-191.0
1993-07-29,-192.0
1993-07-30,-382.0
1993-07-31,-381.0
1993-08-01,-380.0
1993-08-02,-380.0
1993-08-03,-378.0
1993-08-04,-378.0
1993-08-05,-189.0
1993-08-06,-188.0
1993-08-07,-188.0
1993-08-08,-188.0
1993-08-09,-188.0
1993-08-10,0.0
1993-08-11,0.0
1993-08-12,-187.0
1993-08-13,-188.0
1993-08-14,-187.0
1993-08-15,-186.0
1993-08-16,-187.0
1993-08-17,-373.0
1993-08-18,-372.0
1993-08-19,-185.0
1993-08-20,-186.0
1993-08-21,-185.0
1993-08-22,-185.0
1993-08-23,-185.0
1993-08-24,-184.0
1993-08-25,-184.0
1993-08-26,-185.0
1993-08-27,-367.0
1993-08-28,-367.0
1993-08-29,-366.0
1993-08-30,-365.0
1993-08-31,-364.0
1993-09-01,-363.0
1993-09-02,-363.0
1993-09-03,-361.0
1993-09-04,-360.0
1993-09-05,-360.0
1993-09-06,-358.0
1993-09-07,0.0
1993-09-08,-179.0
1993-09-09,-179.0
1993-09-10,-178.0
1993-09-11,-179.0
1993-09-12,-178.0
1993-09-13,-177.0
1993-09-14,-178.0
1993-09-15,-177.0
1993-09-16,-177.0
1993-09-17,-177.0
1993-09-18,-177.0
1993-09-19,0.0
1993-09-20,-176.0
1993-09-21,0.0
1993-09-22,-176.0
1993-09-23,0.0
1993-09-24,-352.0
1993-09-25,-350.0
1993-09-26,-350.0
1993-09-27,-349.0
1993-09-28,-348.0
1993-09-29,-347.0
1993-09-30,-346.0
1993-10-01,-345.0
1993-10-02,-344.0
1993-10-03,-343.0
1993-10-04,-342.0
1993-10-05,-342.0
1993-10-06,-374.0
1993-10-07,-391.0
1993-10-08,-406.0
1993-10-09,-455.0
1993-10-10,-504.0
1993-10-11,-501.0
1993-10-12,-483.0
1993-10-13,-448.0
1993-10-14,-463.0
1993-10-15,-477.0
1993-10-16,-492.0
1993-10-17,-539.0
1993-10-18,-438.0
1993-10-19,-341.0
1993-10-20,0.0
1993-10-21,0.0
1993-10-22,0.0
1993-10-23,0.0
1993-10-24,0.0
1993-10-25,324.0
1993-10-26,325.0
1993-10-27,163.0
1993-10-28,0.0
1993-10-29,-163.0
1993-10-30,0.0
1993-10-31,-162.0
1993-11-01,0.0
1993-11-02,0.0
1993-11-03,0.0
1993-11-04,-163.0
1993-11-05,-162.0
1993-11-06,-162.0
1993-11-07,-161.0
1993-11-08,-161.0
1993-11-09,0.0
1993-11-10,-162.0
1993-11-11,-161.0
1993-11-12,-160.0
1993-11-13,-161.0
1993-11-14,0.0
1993-11-15,0.0
1993-11-16,0.0
1993-11-17,-160.0
1993-11-18,0.0
1993-11-19,-160.0
1993-11-20,-160.0
1993-11-21,0.0
1993-11-22,-159.0
1993-11-23,0.0
1993-11-24,-48.0
1993-11-25,-48.0
1993-11-26,-48.0
1993-11-27,-47.0
1993-11-28,-48.0
1993-11-29,-143.0
1993-11-30,-48.0
1993-12-01,-47.0
1993-12-02,-64.0
1993-12-03,-63.0
1993-12-04,-48.0
1993-12-05,-47.0
1993-12-06,-48.0
1993-12-07,-47.0
1993-12-08,-48.0
1993-12-09,-47.0
1993-12-10,-48.0
1993-12-11,-47.0
1993-12-12,-47.0
1993-12-13,-64.0
1993-12-14,-47.0
1993-12-15,-47.0
1993-12-16,-48.0
1993-12-17,-47.0
1993-12-18,-47.0
1993-12-19,-47.0
1993-12-20,-48.0
1993-12-21,-47.0
1993-12-22,-47.0
1993-12-23,-47.0
1993-12-24,-47.0
1993-12-25,-47.0
1993-12-26,-47.0
1993-12-27,-47.0
1993-12-28,-47.0
1993-12-29,-47.0
1993-12-30,-47.0
1993-12-31,-47.0
1994-01-01,-47.0
1994-01-02,-47.0
1994-01-03,-47.0
1994-01-04,-47.0
1994-01-05,-47.0
1994-01-06,-47.0
1994-01-07,-47.0
1994-01-08,-47.0
1994-01-09,-46.0
1994-01-10,-47.0
1994-01-11,-47.0
1994-01-12,-47.0
1994-01-13,-46.0
1994-01-14,-47.0
1994-01-15,-47.0
1994-01-16,-46.0
1994-01-17,-47.0
1994-01-18,-47.0
1994-01-19,-46.0
1994-01-20,-47.0
1994-01-21,-46.0
1994-01-22,-47.0
1994-01-23,-46.0
1994-01-24,-47.0
1994-01-25,-46.0
1994-01-26,-62.0
1994-01-27,-47.0
1994-01-28,-46.0
1994-01-29,-46.0
1994-01-30,-47.0
1994-01-31,-46.0
1994-02-01,-46.0
1994-02-02,-31.0
1994-02-03,-31.0
1994-02-04,-31.0
1994-02-05,-31.0
1994-02-06,-31.0
1994-02-07,-30.0
1994-02-08,-31.0
1994-02-09,-31.0
1994-02-10,-31.0
1994-02-11,-31.0
1994-02-12,-30.0
1994-02-13,-31.0
1994-02-14,-31.0
1994-02-15,-31.0
1994-02-16,-30.0
1994-02-17,-31.0
1994-02-18,-31.0
1994-02-19,-31.0
1994-02-20,-30.0
1994-02-21,-31.0
1994-02-22,-31.0
1994-02-23,-30.0
1994-02-24,-31.0
1994-02-25,-31.0
1994-02-26,-30.0
1994-02-27,-31.0
1994-02-28,-30.0
1994-03-01,-46.0
1994-03-02,-46.0
1994-03-03,-46.0
1994-03-04,-46.0
1994-03-05,-46.0
1994-03-06,-46.0
1994-03-07,-45.0
1994-03-08,-46.0
1994-03-09,-46.0
1994-03-10,-46.0
1994-03-11,-45.0
1994-03-12,-46.0
1994-03-13,-46.0
1994-03-14,-45.0
1994-03-15,-46.0
1994-03-16,-30.0
1994-03-17,-31.0
1994-03-18,-30.0
1994-03-19,-31.0
1994-03-20,-30.0
1994-03-21,-30.0
1994-03-22,-31.0
1994-03-23,-30.0
1994-03-24,-30.0
1994-03-25,-31.0
1994-03-26,-30.0
1994-03-27,-30.0
1994-03-28,-31.0
1994-03-29,-30.0
1994-03-30,-45.0
1994-03-31,-46.0
1994-04-01,-45.0
1994-04-02,-45.0
1994-04-03,-31.0
1994-04-04,-30.0
1994-04-05,-30.0
1994-04-06,-30.0
1994-04-07,-46.0
1994-04-08,151.0
1994-04-09,152.0
1994-04-10,151.0
1994-04-11,152.0
1994-04-12,152.0
1994-04-13,152.0
1994-04-14,152.0
1994-04-15,153.0
1994-04-16,153.0
1994-04-17,153.0
1994-04-18,153.0
1994-04-19,154.0
1994-04-20,153.0
1994-04-21,154.0
1994-04-22,155.0
1994-04-23,154.0
1994-04-24,155.0
1994-04-25,155.0
1994-04-26,155.0
1994-04-27,155.0
1994-04-28,156.0
1994-04-29,156.0
1994-04-30,156.0
1994-05-01,156.0
1994-05-02,157.0
1994-05-03,156.0
1994-05-04,157.0
1994-05-05,157.0
1994-05-06,158.0
1994-05-07,158.0
1994-05-08,158.0
1994-05-09,158.0
1994-05-10,158.0
1994-05-11,159.0
1994-05-12,159.0
1994-05-13,222.0
1994-05-14,223.0
1994-05-15,224.0
1994-05-16,224.0
1994-05-17,225.0
1994-05-18,160.0
1994-05-19,969.0
1994-05-20,651.0
1994-05-21,654.0
1994-05-22,658.0
1994-05-23,662.0
1994-05-24,832.0
1994-05-25,1682.0
1994-05-26,679.0
1994-05-27,683.0
1994-05-28,858.0
1994-05-29,865.0
1994-05-30,1220.0
1994-05-31,1408.0
1994-06-01,1423.0
1994-06-02,1618.0
1994-06-03,1821.0
1994-06-04,919.0
1994-06-05,1109.0
1994-06-06,1490.0
1994-06-07,1316.0
1994-06-08,1136.0
1994-06-09,952.0
1994-06-10,766.0
1994-06-11,576.0
1994-06-12,965.0
1994-06-13,776.0
1994-06-14,390.0
1994-06-15,195.0
1994-06-16,0.0
1994-06-17,977.0
1994-06-18,0.0
1994-06-19,786.0
1994-06-20,395.0
1994-06-21,0.0
1994-06-22,0.0
1994-06-23,0.0
1994-06-24,197.0
1994-06-25,0.0
1994-06-26,0.0
1994-06-27,-197.0
1994-06-28,0.0
1994-06-29,-198.0
1994-06-30,-197.0
1994-07-01,-196.0
1994-07-02,-197.0
1994-07-03,-196.0
1994-07-04,-197.0
1994-07-05,-391.0
1994-07-06,-196.0
1994-07-07,-390.0
1994-07-08,-195.0
1994-07-09,-390.0
1994-07-10,-388.0
1994-07-11,-388.0
1994-07-12,-386.0
1994-07-13,-386.0
1994-07-14,-385.0
1994-07-15,-384.0
1994-07-16,-383.0
1994-07-17,-459.0
1994-07-18,-496.0
1994-07-19,-380.0
1994-07-20,-380.0
1994-07-21,-378.0
1994-07-22,-378.0
1994-07-23,-377.0
1994-07-24,-376.0
1994-07-25,-375.0
1994-07-26,-375.0
1994-07-27,-373.0
1994-07-28,-373.0